Stations météo

Publicité
Perrigny, France (7266): Température de l'air & dewpoint: 11.08.2019 16:00:00 - 17.08.2019 16:00:00 (CEST)Perrigny, France (7266): Température de l'air 5cm: 11.08.2019 16:00:00 - 17.08.2019 16:00:00 (CEST)Perrigny, France (7266): Température de l'air -20cm & Température de l'air -100cm: 11.08.2019 16:00:00 - 17.08.2019 16:00:00 (CEST)Perrigny, France (7266): Vitesse du vent & gusts: 11.08.2019 16:00:00 - 17.08.2019 16:00:00 (CEST)Perrigny, France (7266): Direction du vent: 11.08.2019 16:00:00 - 17.08.2019 16:00:00 (CEST)Perrigny, France (7266): reduced air pressure: 11.08.2019 16:00:00 - 17.08.2019 16:00:00 (CEST)Perrigny, France (7266): visibility: 11.08.2019 16:00:00 - 17.08.2019 16:00:00 (CEST)Perrigny, France (7266): Ensoleillement: 11.08.2019 16:00:00 - 17.08.2019 16:00:00 (CEST)Perrigny, France (7266): Quantités de précipitations: 11.08.2019 16:00:00 - 17.08.2019 16:00:00 (CEST)
Date & Time tt [°C] td [°C] tt 5cm [°C] tt -20cm [°C] tt -100cm [°C] ff [km/h] ff [knt] fx [km/h] fx [knt] dd ppp [hPa] vv [km] sd [min] rr [mm]
17.08.2019 16:00:00 20,4 17,2 19,0 21,4 20,4 7 4 19 10 SW 1011,9 20 0 0,2
17.08.2019 15:00:00 20,3 16,1 18,5 21,4 20,4 15 8 32 18 SSW 1012,4 20 0 0,2
17.08.2019 14:00:00 21,4 15,9 21,1 21,3 20,3 19 10 29 16 SSW 1012,3 20 0 0,0
17.08.2019 13:00:00 20,5 16,1 18,5 21,3 20,4 19 10 33 18 SSW 1013,1 20 0 0,0
17.08.2019 12:00:00 18,5 16,3 17,2 21,3 20,4 13 7 26 14 S 1013,4 20 0 0,2
17.08.2019 11:00:00 17,9 15,5 16,7 21,3 20,3 19 10 31 17 S 1013,4 20 0 0,2
17.08.2019 10:00:00 17,4 15,0 16,2 21,5 20,4 16 8 26 14 S 1013,7 20 0 0,2
17.08.2019 09:00:00 17,0 14,6 15,5 21,7 20,4 17 9 25 14 S 1013,7 20 0 0,6
17.08.2019 08:00:00 16,8 13,5 15,3 21,8 20,4 13 7 19 10 S 1013,4 10 0 0,8
17.08.2019 07:00:00 17,4 13,5 15,9 22,1 20,4 11 6 15 8 S 1013,0 20 0 0,0
17.08.2019 06:00:00 17,5 13,2 15,5 22,2 20,4 11 6 16 9 SSE 1012,9 20 0 0,0
17.08.2019 05:00:00 17,9 13,0 15,6 22,4 20,4 9 5 13 7 S 1012,9 20 0 0,0
17.08.2019 04:00:00 19,4 11,9 19,1 22,6 20,4 9 5 16 9 SSW 1013,0 20 0 0,0
17.08.2019 03:00:00 19,6 12,1 18,3 22,8 20,4 9 5 13 7 S 1013,3 20 0 0,0
17.08.2019 02:00:00 19,4 11,7 18,4 23,1 20,4 6 3 11 6 SSW 1013,3 20 0 0,0
17.08.2019 01:00:00 19,8 11,8 18,7 23,3 20,5 9 5 12 6 SSW 1013,5 20 0 0,0
17.08.2019 00:00:00 20,5 11,4 19,4 23,6 20,4 7 4 14 8 SSW 1013,4 20 0 0,0
16.08.2019 23:00:00 20,8 11,7 18,4 23,9 20,4 9 5 13 7 SSW 1013,7 20 0 0,0
16.08.2019 22:00:00 21,8 10,9 20,6 24,2 20,5 8 5 17 9 S 1013,5 20 0 0,0
16.08.2019 21:00:00 23,6 11,0 23,0 24,3 20,4 12 6 19 10 S 1013,3 20 27 0,0
16.08.2019 20:00:00 24,7 10,9 24,9 24,4 20,3 11 6 27 14 S 1013,2 20 2 0,0
16.08.2019 19:00:00 25,7 10,7 26,3 24,3 20,4 14 8 29 15 SSW 1013,6 20 16 0,0
16.08.2019 18:00:00 26,5 10,6 29,8 24,0 20,4 14 8 46 25 SW 1014,2 20 60 0,0
16.08.2019 17:00:00 26,6 11,1 26,6 23,5 20,4 11 6 32 18 SW 1014,7 20 31 0,0
16.08.2019 16:00:00 25,8 10,4 29,1 22,8 20,4 13 7 30 16 SW 1015,6 20 58 0,0
16.08.2019 15:00:00 25,2 10,6 26,8 22,2 20,5 13 7 31 17 WSW 1016,4 20 47 0,0
16.08.2019 14:00:00 24,6 11,5 26,4 21,7 20,4 11 6 26 14 SW 1017,2 20 39 0,0
16.08.2019 13:00:00 23,0 11,7 24,9 21,1 20,4 7 4 23 13 S 1018,2 20 36 0,0
16.08.2019 12:00:00 21,8 11,8 25,4 20,5 20,4 7 4 16 9 SW 1019,0 20 51 0,0
16.08.2019 11:00:00 20,0 12,5 21,3 20,1 20,3 8 5 16 9 SE 1019,4 20 43 0,0
16.08.2019 10:00:00 18,2 12,6 19,1 19,9 20,3 7 4 11 6 SSE 1019,5 20 34 0,0
16.08.2019 09:00:00 16,0 12,0 16,3 19,9 20,5 7 4 13 7 SE 1020,3 20 54 0,0
16.08.2019 08:00:00 13,5 12,2 10,2 20,1 20,3 0 0 5 3 N 1020,7 20 51 0,0
16.08.2019 07:00:00 10,8 9,4 9,0 20,4 20,5 3 2 5 3 WSW 1020,6 20 0 0,0
16.08.2019 06:00:00 10,8 8,7 9,1 20,7 20,5 3 1 6 3 SE 1020,7 20 0 0,0
16.08.2019 05:00:00 12,7 10,2 9,7 21,0 20,5 3 1 6 3 S 1020,8 20 0 0,0
16.08.2019 04:00:00 12,6 9,6 10,4 21,4 20,5 5 3 7 4 S 1021,1 20 0 0,0
16.08.2019 03:00:00 13,5 10,1 10,6 21,7 20,6 2 1 10 5 S 1021,1 18 0 0,0
16.08.2019 02:00:00 15,3 10,5 13,1 22,0 20,5 5 3 10 6 SW 1020,7 20 0 0,0
16.08.2019 01:00:00 16,3 10,6 12,8 22,4 20,4 6 3 9 5 WSW 1020,6 20 0 0,0
16.08.2019 00:00:00 17,7 10,6 15,3 22,6 20,5 4 2 10 5 WSW 1020,8 20 0 0,0
15.08.2019 23:00:00 19,0 10,8 18,2 22,9 20,4 9 5 16 9 W 1020,3 20 0 0,0
15.08.2019 22:00:00 20,3 11,5 19,9 23,1 20,4 10 5 20 11 WSW 1019,7 20 0 0,0
15.08.2019 21:00:00 20,8 12,0 20,6 23,3 20,5 8 5 21 11 SW 1018,7 20 0 0,0
15.08.2019 20:00:00 21,3 11,6 21,5 23,4 20,6 12 6 36 19 WSW 1018,6 20 26 0,0
15.08.2019 19:00:00 22,6 11,3 20,6 23,4 20,5 19 11 35 19 WSW 1018,0 20 6 0,0
15.08.2019 18:00:00 22,5 10,6 23,0 23,2 20,5 13 7 38 20 W 1017,8 20 28 0,0
15.08.2019 17:00:00 23,1 11,8 24,2 22,9 20,6 17 9 38 20 W 1017,5 20 38 0,0
15.08.2019 16:00:00 21,5 12,1 22,4 22,5 20,4 23 12 42 23 W 1018,0 20 16 0,0
15.08.2019 15:00:00 22,6 10,4 23,9 22,2 20,4 22 12 42 23 W 1017,4 20 13 0,0
15.08.2019 14:00:00 22,1 11,5 22,1 22,0 20,5 17 9 41 22 W 1017,2 20 19 0,0
15.08.2019 13:00:00 19,9 13,1 19,1 21,9 20,6 16 9 35 19 WSW 1017,1 20 1 0,0
15.08.2019 12:00:00 20,5 12,7 19,0 21,8 20,5 21 12 38 21 W 1016,7 20 5 0,0
15.08.2019 11:00:00 18,8 14,1 18,0 21,7 20,5 16 9 33 18 W 1016,4 20 24 0,0
15.08.2019 10:00:00 18,8 14,9 19,2 21,6 20,5 16 9 27 15 W 1015,9 20 2 0,0
15.08.2019 09:00:00 17,9 15,3 16,7 21,7 20,5 11 6 21 12 WSW 1015,7 20 0 0,0
15.08.2019 08:00:00 16,9 15,2 16,6 21,8 20,4 8 5 22 12 SW 1015,5 18 0 0,0
15.08.2019 07:00:00 16,5 14,7 16,6 22,0 20,5 11 6 24 13 SSW 1014,9 20 0 0,0
15.08.2019 06:00:00 17,4 14,1 17,4 22,2 20,5 9 5 26 14 SW 1014,6 20 0 0,0
15.08.2019 05:00:00 18,2 13,1 18,1 22,4 20,5 13 7 27 15 SW 1014,5 20 0 0,0
15.08.2019 04:00:00 19,1 11,4 18,7 22,6 20,6 10 5 26 14 SW 1014,8 20 0 0,0
15.08.2019 03:00:00 19,8 11,0 19,3 22,9 20,5 11 6 29 15 WSW 1014,8 20 0 0,0
15.08.2019 02:00:00 20,8 10,0 20,4 23,1 20,5 14 8 27 15 SW 1015,1 20 0 0,0
15.08.2019 01:00:00 20,6 10,4 20,4 23,3 20,5 9 5 17 9 SSW 1015,4 20 0 0,0
15.08.2019 00:00:00 21,4 9,9 20,9 23,5 20,5 10 5 33 18 SW 1015,2 20 0 0,0
14.08.2019 23:00:00 22,1 9,6 18,8 23,8 20,5 20 11 41 22 WSW 1015,5 20 0 0,0
14.08.2019 22:00:00 20,0 9,8 18,2 24,1 20,6 8 4 11 6 S 1015,3 20 0 0,0
14.08.2019 21:00:00 22,4 9,5 21,3 24,3 20,6 6 3 19 10 SW 1015,0 20 2 0,0
14.08.2019 20:00:00 24,3 8,7 24,1 24,3 20,6 11 6 28 15 SW 1014,9 20 51 0,0
14.08.2019 19:00:00 25,6 9,0 28,2 24,2 20,6 13 7 36 19 SW 1015,0 20 60 0,0
14.08.2019 18:00:00 26,0 8,9 26,7 23,9 20,6 17 9 36 19 SW 1015,5 20 56 0,0
14.08.2019 17:00:00 26,0 9,3 26,0 23,4 20,5 17 9 40 22 SSW 1016,0 20 46 0,0
14.08.2019 16:00:00 25,9 9,7 26,4 22,8 20,6 18 10 32 17 SSW 1016,9 19 37 0,0
14.08.2019 15:00:00 24,9 8,8 26,2 22,2 20,5 16 9 31 17 SSW 1017,6 20 46 0,0
14.08.2019 14:00:00 23,7 10,0 24,5 21,7 20,7 14 8 33 18 WSW 1018,0 20 54 0,0
14.08.2019 13:00:00 23,5 10,2 27,3 20,9 20,5 14 8 26 14 S 1018,7 20 58 0,0
14.08.2019 12:00:00 22,4 9,9 26,5 20,2 20,6 13 7 24 13 S 1019,1 20 60 0,0
14.08.2019 11:00:00 21,3 11,0 24,6 19,7 20,6 8 4 16 9 SE 1019,7 20 60 0,0
14.08.2019 10:00:00 18,4 10,2 20,0 19,4 20,6 6 3 11 6 SE 1020,1 20 60 0,0
14.08.2019 09:00:00 15,5 9,6 13,6 19,4 20,6 9 5 13 7 SE 1020,6 20 48 0,0
14.08.2019 08:00:00 12,7 9,9 9,3 19,6 20,6 7 4 10 5 SE 1020,7 20 52 0,0
14.08.2019 07:00:00 9,9 8,0 8,6 19,9 20,7 4 2 8 5 S 1020,6 20 0 0,0
14.08.2019 06:00:00 10,1 8,4 8,7 20,2 20,6 5 3 11 6 SSE 1020,2 20 0 0,0
14.08.2019 05:00:00 10,0 8,3 8,8 20,5 20,7 5 3 9 5 SE 1020,3 20 0 0,0
14.08.2019 04:00:00 10,4 8,0 9,1 20,8 20,7 0 0 4 2 N 1020,7 20 0 0,0
14.08.2019 03:00:00 12,0 9,0 10,1 21,2 20,7 3 2 5 3 SSE 1020,7 20 0 0,0
14.08.2019 02:00:00 14,0 9,6 12,0 21,4 20,7 3 2 6 3 SSE 1020,8 20 0 0,0
14.08.2019 01:00:00 13,8 9,8 12,9 21,7 20,7 3 2 6 3 S 1020,9 20 0 0,0
14.08.2019 00:00:00 15,0 9,4 13,3 22,0 20,7 5 3 7 4 SSW 1020,9 20 0 0,0
13.08.2019 23:00:00 14,7 8,9 12,2 22,3 20,8 4 2 8 4 SW 1021,2 20 0 0,0
13.08.2019 22:00:00 16,0 8,5 12,9 22,6 20,8 3 1 6 3 WSW 1020,8 20 0 0,0
13.08.2019 21:00:00 18,6 8,8 17,9 22,8 20,8 4 2 13 7 NNW 1020,2 20 24 0,0
13.08.2019 20:00:00 21,0 8,3 21,5 23,0 20,8 6 4 14 8 W 1020,1 20 25 0,0
13.08.2019 19:00:00 20,6 8,6 22,1 23,0 20,8 7 4 16 9 NW 1020,0 20 3 0,0
13.08.2019 18:00:00 20,9 7,5 22,4 22,9 20,8 8 4 16 9 WNW 1020,1 20 0 0,0
13.08.2019 17:00:00 21,1 8,0 22,7 22,5 20,9 7 4 20 11 WNW 1020,1 20 10 0,0
13.08.2019 16:00:00 21,3 8,2 24,0 21,9 20,8 12 6 26 14 W 1020,4 20 49 0,0
13.08.2019 15:00:00 20,8 7,8 23,4 21,3 20,8 13 7 28 15 WNW 1020,8 20 51 0,0
13.08.2019 14:00:00 20,1 7,1 22,8 20,9 20,8 13 7 25 13 WSW 1021,2 20 53 0,0
13.08.2019 13:00:00 19,3 7,1 24,0 20,2 20,8 13 7 24 13 W 1021,7 20 60 0,0
13.08.2019 12:00:00 18,0 8,5 20,4 19,6 20,8 16 9 29 15 WNW 1022,0 20 52 0,0
13.08.2019 11:00:00 17,5 9,6 20,9 19,2 20,8 7 4 16 9 W 1022,2 20 60 0,0
13.08.2019 10:00:00 15,6 11,2 18,1 19,0 20,8 3 2 15 8 W 1022,5 20 60 0,0
13.08.2019 09:00:00 14,1 13,0 15,9 18,9 20,9 6 3 10 6 WSW 1022,6 20 60 0,0
13.08.2019 08:00:00 12,3 11,7 10,9 19,1 20,9 4 2 7 4 SW 1022,4 20 37 0,0
13.08.2019 07:00:00 10,5 9,9 7,4 19,3 20,8 3 2 6 3 S 1022,3 20 0 0,2
13.08.2019 06:00:00 10,0 9,2 7,9 19,7 20,9 2 1 5 3 SSW 1021,9 8 0 0,0
13.08.2019 05:00:00 10,4 9,6 8,1 20,0 20,9 4 2 7 4 SE 1021,3 18 0 0,0
13.08.2019 04:00:00 11,5 10,6 9,3 20,3 20,9 4 2 5 3 S 1021,2 20 0 0,0
13.08.2019 03:00:00 11,3 10,0 9,7 20,6 21,0 3 1 10 5 S 1021,4 20 0 0,0
13.08.2019 02:00:00 13,0 11,6 11,9 20,9 20,9 6 3 12 6 W 1021,0 20 0 0,0
13.08.2019 01:00:00 12,7 11,1 11,4 21,2 21,0 5 3 8 5 SW 1020,9 20 0 0,0
13.08.2019 00:00:00 13,3 11,5 12,6 21,6 20,9 5 3 13 7 SW 1020,5 20 0 0,0
12.08.2019 23:00:00 13,9 12,3 12,1 21,9 21,0 4 2 8 4 WSW 1020,1 20 0 0,0
12.08.2019 22:00:00 14,9 12,6 13,7 22,2 20,9 4 2 9 5 WSW 1019,5 20 0 0,2
12.08.2019 21:00:00 16,1 12,1 15,5 22,5 21,0 8 4 15 8 W 1018,6 20 10 0,0
12.08.2019 20:00:00 17,9 12,3 17,0 22,7 21,1 5 3 16 8 SW 1017,6 20 60 0,0
12.08.2019 19:00:00 15,9 12,6 14,2 22,8 20,9 9 5 55 30 SW 1017,7 17 2 0,4
12.08.2019 18:00:00 19,7 10,1 19,9 22,6 21,1 22 12 44 24 WNW 1017,2 20 24 0,0
12.08.2019 17:00:00 22,9 8,2 23,1 22,2 21,1 22 12 38 21 SW 1016,2 20 40 0,0
12.08.2019 16:00:00 22,6 10,4 24,2 21,7 21,0 19 10 33 18 SSW 1016,5 20 41 0,0
12.08.2019 15:00:00 21,4 11,7 21,6 21,4 21,0 13 7 24 13 W 1016,8 20 30 0,0
12.08.2019 14:00:00 19,3 12,8 18,5 21,1 21,1 10 5 39 21 SW 1017,2 20 2 0,2
12.08.2019 13:00:00 22,1 10,6 22,8 20,7 21,1 11 6 31 17 SW 1017,1 20 29 0,0
12.08.2019 12:00:00 21,2 11,8 21,5 20,1 21,0 14 8 29 16 S 1017,5 20 24 0,0
12.08.2019 11:00:00 19,6 12,4 21,6 19,7 21,1 7 4 16 9 WSW 1018,0 20 47 0,0
12.08.2019 10:00:00 18,3 13,4 20,4 19,5 21,2 5 3 14 7 S 1018,0 20 54 0,0
12.08.2019 09:00:00 16,0 13,5 14,8 19,4 21,1 7 4 14 8 S 1018,1 20 31 0,0
12.08.2019 08:00:00 14,1 12,8 12,4 19,6 21,1 4 2 10 6 S 1017,8 20 19 0,0
12.08.2019 07:00:00 12,7 11,6 12,4 19,7 21,1 6 3 12 7 S 1017,7 20 0 0,0
12.08.2019 06:00:00 12,6 11,5 12,0 19,9 21,2 6 3 10 5 SSE 1018,0 20 0 0,0
12.08.2019 05:00:00 12,8 11,7 12,2 20,1 21,0 11 6 18 10 SE 1018,2 20 0 0,0
12.08.2019 04:00:00 12,6 11,3 11,9 20,4 21,0 10 5 12 7 SE 1018,3 20 0 0,0
12.08.2019 03:00:00 13,5 11,4 12,5 20,6 21,2 6 3 19 10 SSE 1018,4 20 0 0,0
12.08.2019 02:00:00 13,9 11,9 12,9 20,9 21,2 9 5 16 8 S 1018,8 20 0 0,0
12.08.2019 01:00:00 13,8 11,8 13,0 21,2 21,1 8 4 14 8 SSE 1018,9 20 0 0,0
12.08.2019 00:00:00 14,9 12,6 14,4 21,4 21,2 10 6 16 9 SSE 1018,8 20 0 0,0
11.08.2019 23:00:00 15,7 12,8 14,7 21,7 21,2 13 7 16 9 SSE 1018,5 20 0 0,0
11.08.2019 22:00:00 16,7 12,0 16,0 21,9 21,2 9 5 20 11 S 1018,3 20 0 0,0
11.08.2019 21:00:00 18,3 12,3 18,1 22,0 21,2 8 5 16 8 SSW 1017,6 20 33 0,0
11.08.2019 20:00:00 18,8 12,3 19,2 22,1 21,2 10 6 18 10 SSW 1017,3 20 2 0,0
11.08.2019 19:00:00 19,0 12,0 19,9 22,0 21,2 11 6 17 9 SSW 1017,0 20 14 0,0
11.08.2019 18:00:00 19,5 12,3 21,2 21,8 21,1 8 4 21 11 S 1016,5 20 30 0,0
11.08.2019 17:00:00 18,3 13,2 19,2 21,8 21,2 9 5 16 9 SSE 1016,8 20 0 0,0
11.08.2019 16:00:00 18,4 12,6 18,4 21,6 21,2 8 5 15 8 S 1017,1 20 0 0,0

tt = Température de l'air
td = dewpoint
tt 5cm = Température de l'air 5cm
tt -20cm = Température de l'air -20cm
tt -100cm = Température de l'air -100cm
ff = Vitesse du vent
fx = gusts
dd = Direction du vent
ppp = reduced air pressure
vv = visibility
sd = Ensoleillement
rr = Quantités de précipitations

stations d'obs. à proximité